Zurück zum Katalog

CZ-6A DEB

AktivSSO
NORAD 54639·DEBRIS·🇨🇳 China

Gestartet Nov 11, 2022 von Taiyuan Satellite Launch Center

Loading…

Nächste Überflüge (nächste 24 Stunden)

TLE

AktuellSource: Space-Track

Epoche: Sep 13, 2026, 23:26 UTC

1 54639U 22151PR  26256.97652869  .00000059  00000-0  54437-4 0  9992
2 54639  98.8169 259.9371 0030130  70.7281 289.7147 14.13274873197845

Verfolge CZ-6A DEB in Echtzeit mit AllMySat

Download on the App Store